KE4OGG Weather Reports


Display with metric or nautical units.
time (UTC)temp
F
wind
direction
speed
MPH
gust
MPH
rain 1hr
in
rain 24hr
in
rain mn
in
humidity
%
barometer
mb
20260508082523 50 0 0.0 1.0 0.00 0.47 0.00 70 1015.4
20260508082024 50 0 0.0 1.0 0.00 0.47 0.00 69 1015.3
20260508081545 50 288 1.0 1.0 0.00 0.47 0.00 69 1015.4
20260508081023 50 0 0.0 0.0 0.00 0.47 0.00 68 1015.4
20260508080527 51 0 0.0 0.0 0.00 0.47 0.00 67 1015.3
20260508080036 51 0 0.0 0.0 0.00 0.47 0.00 67 1015.2
20260508075523 51 0 0.0 0.0 0.00 0.78 0.00 67 1015.2
20260508075023 51 0 0.0 0.0 0.00 0.78 0.00 67 1015.3
20260508074542 51 0 0.0 0.0 0.00 0.78 0.00 66 1015.3
20260508074023 51 0 0.0 1.0 0.00 0.78 0.00 66 1015.2
20260508073523 51 0 0.0 1.0 0.00 0.78 0.00 67 1015.3
20260508073039 51 0 0.0 1.0 0.00 0.78 0.00 69 1015.2
20260508072522 50 0 0.0 1.0 0.00 0.78 0.00 70 1015.3
20260508072022 50 0 0.0 0.0 0.00 0.78 0.00 69 1015.3
20260508071538 50 0 0.0 0.0 0.00 0.78 0.00 68 1015.3
20260508071023 51 0 0.0 0.0 0.00 0.78 0.00 68 1015.2
20260508070525 51 0 0.0 0.0 0.00 0.78 0.00 68 1015.3
20260508070038 51 0 0.0 0.0 0.00 0.78 0.00 68 1015.2
20260508065525 51 0 0.0 0.0 0.00 0.88 0.00 68 1015.3
20260508065023 51 0 0.0 0.0 0.00 0.88 0.00 67 1015.2
20260508064542 51 0 0.0 0.0 0.00 0.88 0.00 67 1015.2
20260508064026 51 0 0.0 0.0 0.00 0.88 0.00 66 1015.2
20260508063526 52 0 0.0 0.0 0.00 0.88 0.00 66 1015.1
20260508063040 52 0 0.0 1.0 0.00 0.88 0.00 66 1015.2
20260508062522 52 0 0.0 1.0 0.00 0.88 0.00 66 1015.2
20260508062023 52 288 0.0 1.0 0.00 0.88 0.00 67 1015.2
20260508061540 52 0 0.0 0.0 0.00 0.88 0.00 66 1015.2
20260508061028 52 0 0.0 0.0 0.00 0.88 0.00 66 1015.3
20260508060525 52 0 0.0 0.0 0.00 0.88 0.00 65 1015.3
20260508060038 53 0 0.0 1.0 0.00 0.88 0.00 65 1015.4
20260508055522 53 0 0.0 1.0 0.00 1.04 0.00 66 1015.3
20260508055022 52 0 0.0 0.0 0.00 1.04 0.00 66 1015.3
20260508054544 52 0 0.0 0.0 0.00 1.04 0.00 66 1015.4
20260508054026 52 0 0.0 0.0 0.00 1.04 0.00 66 1015.4
20260508053526 53 0 0.0 0.0 0.00 1.04 0.00 65 1015.5
20260508053037 53 0 0.0 0.0 0.00 1.04 0.00 65 1015.4
20260508052522 53 0 0.0 0.0 0.00 1.04 0.00 65 1015.3
20260508052022 53 0 0.0 0.0 0.00 1.04 0.00 65 1015.5
20260508051538 54 0 0.0 0.0 0.00 1.04 0.00 65 1015.5
20260508051023 54 0 0.0 0.0 0.00 1.04 0.00 64 1015.4
20260508050524 54 0 0.0 0.0 0.00 1.04 0.00 63 1015.4
20260508050041 54 0 0.0 0.0 0.00 1.04 0.00 63 1015.3
20260508045526 54 0 0.0 0.0 0.00 1.29 0.00 63 1015.2
20260508045025 55 0 0.0 0.0 0.00 1.29 0.00 62 1015.2
20260508044538 55 0 0.0 0.0 0.00 1.29 0.00 62 1015.3
20260508044023 55 0 0.0 0.0 0.00 1.29 0.00 61 1015.3
20260508043523 55 0 0.0 0.0 0.00 1.29 0.00 62 1015.3
20260508043045 55 0 0.0 1.0 0.00 1.29 0.00 62 1015.1
20260508042524 55 0 0.0 1.0 0.00 1.29 0.00 62 1014.9
20260508042024 55 0 0.0 1.0 0.00 1.29 0.00 63 1015.2
20260508041536 55 0 0.0 0.0 0.00 1.29 0.00 64 1015.1
20260508041023 55 0 0.0 0.0 0.00 1.29 0.00 63 1015.2
20260508040523 55 0 0.0 0.0 0.00 1.29 0.00 63 1015.1
20260508040044 55 0 0.0 0.0 0.00 1.29 0.00 62 1014.9
20260508035524 56 0 0.0 0.0 0.00 1.29 1.29 63 1014.9
20260508035025 56 0 0.0 0.0 0.00 1.29 1.29 61 1014.8
20260508034546 56 0 0.0 0.0 0.00 1.29 1.29 61 1014.8
20260508034022 57 0 0.0 0.0 0.00 1.29 1.29 60 1014.9
20260508033522 57 0 0.0 0.0 0.00 1.29 1.29 60 1014.9
20260508033038 57 0 0.0 0.0 0.00 1.29 1.29 59 1014.9
20260508032524 57 0 0.0 0.0 0.00 1.29 1.29 59 1014.9
20260508032024 58 0 0.0 1.0 0.00 1.29 1.29 58 1014.7
20260508031537 58 0 0.0 1.0 0.00 1.29 1.29 58 1014.8
20260508031023 59 0 0.0 0.0 0.00 1.29 1.29 57 1014.7
20260508030523 59 0 0.0 0.0 0.00 1.29 1.29 55 1014.8
20260508030037 60 0 0.0 0.0 0.00 1.29 1.29 52 1014.6
20260508025523 60 0 0.0 1.0 0.00 1.30 1.29 51 1014.6
20260508025023 61 0 0.0 2.0 0.00 1.30 1.29 49 1014.5
20260508024536 61 283 0.0 2.0 0.00 1.30 1.29 48 1014.5
20260508024023 61 295 0.0 5.0 0.00 1.30 1.29 49 1014.4
20260508023523 61 290 2.0 6.0 0.00 1.30 1.29 48 1014.4
20260508023039 61 288 2.0 6.0 0.00 1.30 1.29 49 1014.2
20260508022523 60 300 2.0 4.0 0.00 1.30 1.29 52 1014.3
20260508022023 60 287 1.0 3.0 0.00 1.30 1.29 55 1014.2
20260508021539 60 293 1.0 2.0 0.00 1.30 1.29 55 1014.2
20260508021026 60 289 0.0 1.0 0.00 1.30 1.29 55 1014.2
20260508020522 61 0 0.0 1.0 0.00 1.30 1.29 55 1014.4
20260508020040 61 289 0.0 1.0 0.00 1.30 1.29 54 1014.3
20260508015524 61 0 0.0 1.0 0.00 1.36 1.29 54 1013.9
20260508015023 61 288 0.0 2.0 0.00 1.36 1.29 54 1014.1
20260508014538 62 0 1.0 4.0 0.00 1.36 1.29 53 1014.0
20260508014023 62 0 1.0 4.0 0.00 1.36 1.29 53 1013.9
20260508013523 62 0 1.0 4.0 0.00 1.36 1.29 52 1013.7
20260508013037 62 297 1.0 4.0 0.00 1.36 1.29 52 1013.6
20260508012524 62 288 2.0 4.0 0.00 1.36 1.29 52 1013.5
20260508012026 62 300 1.0 3.0 0.00 1.36 1.29 52 1013.4
20260508011538 63 288 1.0 4.0 0.00 1.36 1.29 52 1013.3
20260508011024 63 287 1.0 4.0 0.00 1.36 1.29 52 1013.2
20260508010523 63 293 2.0 6.0 0.00 1.36 1.29 52 1013.2
20260508010038 63 0 2.0 6.0 0.00 1.36 1.29 52 1013.1
20260508005522 63 287 2.0 6.0 0.00 2.34 1.29 52 1012.9
20260508005022 64 290 2.0 6.0 0.00 2.34 1.29 51 1012.9
20260508004538 64 296 2.0 6.0 0.00 2.34 1.29 51 1012.9
20260508004022 64 285 1.0 6.0 0.00 2.34 1.29 51 1012.8
20260508003523 64 292 0.0 3.0 0.00 2.34 1.29 51 1012.8
20260508003040 64 285 0.0 3.0 0.00 2.34 1.29 50 1012.5
20260508002523 65 0 0.0 3.0 0.00 2.34 1.29 50 1012.4
20260508002025 65 0 1.0 5.0 0.00 2.34 1.29 50 1012.5
20260508001538 65 303 0.0 6.0 0.00 2.34 1.29 49 1012.4
20260508001022 66 302 1.0 6.0 0.00 2.34 1.29 48 1012.2
20260508000526 66 290 1.0 5.0 0.00 2.34 1.29 48 1012.2
20260508000038 66 287 1.0 4.0 0.00 2.34 1.29 48 1011.9
20260507235527 66 290 1.0 6.0 0.00 2.42 1.29 47 1011.9
20260507235022 67 277 1.0 6.0 0.00 2.42 1.29 46 1012.0
20260507234545 68 283 3.0 12.0 0.00 2.42 1.29 45 1012.0
20260507234023 68 303 3.0 12.0 0.00 2.42 1.29 45 1011.8
20260507233523 68 304 3.0 12.0 0.00 2.42 1.29 44 1011.8
20260507233036 68 281 1.0 7.0 0.00 2.42 1.29 45 1011.7
20260507232525 69 277 1.0 5.0 0.00 2.42 1.29 43 1011.5
20260507232023 69 287 1.0 7.0 0.00 2.42 1.29 43 1011.4
20260507231540 69 68 3.0 7.0 0.00 2.42 1.29 42 1011.3
20260507231023 70 288 2.0 7.0 0.00 2.42 1.29 42 1011.3
20260507230523 70 276 2.0 6.0 0.00 2.42 1.29 42 1011.2
20260507230039 71 294 2.0 7.0 0.00 2.42 1.29 41 1011.1
20260507225523 71 295 3.0 7.0 0.00 2.42 1.29 41 1011.0
20260507225026 72 293 2.0 9.0 0.00 2.42 1.29 41 1011.0
20260507224539 72 288 3.0 9.0 0.00 2.42 1.29 41 1011.1
20260507224022 72 274 4.0 9.0 0.00 2.42 1.29 40 1011.1
20260507223523 73 285 1.0 8.0 0.00 2.42 1.29 41 1010.8
20260507223038 73 301 4.0 8.0 0.00 2.42 1.29 40 1010.6
20260507222522 74 290 2.0 7.0 0.00 2.42 1.29 42 1010.6
20260507222023 74 12 2.0 7.0 0.00 2.42 1.29 42 1010.5
20260507221540 74 285 3.0 7.0 0.00 2.42 1.29 41 1010.4
20260507221023 75 290 2.0 9.0 0.00 2.42 1.29 42 1010.3
20260507220525 75 288 5.0 9.0 0.00 2.42 1.29 41 1010.2
20260507220039 75 293 4.0 9.0 0.00 2.42 1.29 41 1010.1
20260507215526 75 302 4.0 9.0 0.00 2.42 1.29 41 1010.1
20260507215022 76 289 3.0 9.0 0.00 2.42 1.29 41 1010.1
20260507214538 75 307 2.0 11.0 0.00 2.42 1.29 41 1009.9
20260507214023 76 307 2.0 11.0 0.00 2.42 1.29 43 1010.0
20260507213524 76 277 1.0 8.0 0.00 2.42 1.29 42 1009.9
20260507213044 76 289 1.0 6.0 0.00 2.42 1.29 42 1009.9
20260507212522 75 345 3.0 6.0 0.00 2.42 1.29 44 1009.8
20260507212022 75 103 1.0 5.0 0.00 2.42 1.29 44 1009.8
20260507211543 75 296 2.0 11.0 0.00 2.42 1.29 44 1009.8
20260507211024 75 283 3.0 11.0 0.00 2.42 1.29 44 1009.8
20260507210524 74 288 1.0 6.0 0.00 2.42 1.29 46 1009.9
20260507210035 74 294 2.0 9.0 0.00 2.42 1.29 47 1009.9
20260507205526 74 303 0.0 9.0 0.00 2.42 1.29 46 1009.8
20260507205022 74 294 3.0 11.0 0.00 2.42 1.29 45 1009.8
20260507204543 75 307 4.0 11.0 0.00 2.42 1.29 45 1009.7
20260507204022 75 264 5.0 11.0 0.00 2.42 1.29 43 1009.6
20260507203527 76 294 1.0 10.0 0.00 2.42 1.29 45 1009.8
20260507203042 76 304 4.0 10.0 0.00 2.42 1.29 44 1009.7
20260507202522 76 326 1.0 7.0 0.00 2.42 1.29 44 1009.6
20260507202022 77 293 2.0 8.0 0.00 2.42 1.29 41 1009.6
20260507201538 78 299 1.0 8.0 0.00 2.42 1.29 45 1009.5
20260507201024 78 144 0.0 2.0 0.00 2.42 1.29 44 1009.6
20260507200525 78 35 0.0 5.0 0.00 2.42 1.29 43 1009.7
20260507200043 78 111 1.0 5.0 0.00 2.42 1.29 43 1009.7
20260507195522 78 300 1.0 7.0 0.00 2.42 1.29 45 1009.6
20260507195023 78 212 2.0 7.0 0.00 2.42 1.29 44 1009.5
20260507194537 77 303 1.0 12.0 0.00 2.42 1.29 45 1009.7
20260507194023 77 112 2.0 12.0 0.00 2.42 1.29 45 1009.8
20260507193525 76 315 6.0 12.0 0.00 2.42 1.29 44 1009.9
20260507193048 77 307 4.0 12.0 0.00 2.42 1.29 43 1010.0
20260507192522 77 32 4.0 12.0 0.00 2.42 1.29 44 1009.9
20260507192022 77 112 4.0 10.0 0.00 2.42 1.29 44 1009.9
20260507191538 77 282 2.0 9.0 0.00 2.42 1.29 46 1010.0
20260507191023 76 286 5.0 10.0 0.00 2.42 1.29 46 1009.9
20260507190522 76 300 5.0 10.0 0.00 2.42 1.29 45 1010.1
20260507190043 77 283 3.0 9.0 0.00 2.42 1.29 46 1010.1
20260507185523 77 283 2.0 12.0 0.00 2.42 1.29 50 1010.3
20260507185023 75 325 4.0 12.0 0.00 2.42 1.29 49 1010.4
20260507184532 75 281 3.0 11.0 0.00 2.42 1.29 52 1010.4
20260507184023 75 289 5.0 9.0 0.00 2.42 1.29 55 1010.5
20260507183522 75 300 4.0 8.0 0.00 2.42 1.29 62 1010.6
20260507183043 76 288 2.0 8.0 0.00 2.42 1.29 63 1010.6
20260507182523 76 293 3.0 8.0 0.00 2.42 1.29 65 1010.6
20260507182025 75 295 3.0 9.0 0.00 2.42 1.29 67 1010.6
20260507181538 74 293 2.0 9.0 0.00 2.42 1.29 67 1010.8
20260507181026 74 297 2.0 6.0 0.00 2.42 1.29 68 1010.6
20260507180522 75 286 2.0 6.0 0.00 2.42 1.29 67 1010.7
20260507180037 76 288 2.0 6.0 0.00 2.42 1.29 65 1010.6
20260507175523 76 0 1.0 5.0 0.00 2.42 1.29 66 1010.7
20260507175023 76 144 0.0 3.0 0.00 2.42 1.29 66 1010.6
20260507174538 75 0 0.0 3.0 0.00 2.42 1.29 69 1010.7
20260507174022 75 20 0.0 5.0 0.00 2.42 1.29 68 1010.6
20260507173523 75 304 2.0 5.0 0.00 2.42 1.29 68 1010.6
20260507173045 75 294 1.0 8.0 0.00 2.42 1.29 68 1010.6
20260507172522 76 70 1.0 8.0 0.00 2.42 1.29 68 1010.5
20260507172022 74 304 2.0 8.0 0.00 2.42 1.29 68 1010.4
20260507171550 75 281 2.0 6.0 0.00 2.42 1.29 67 1010.4
20260507171025 74 283 3.0 7.0 0.00 2.42 1.29 67 1010.4
20260507170526 75 300 3.0 11.0 0.00 2.42 1.29 68 1010.5
20260507170041 75 311 1.0 11.0 0.00 2.42 1.29 69 1010.4
20260507165522 75 290 4.0 11.0 0.00 2.47 1.29 64 1010.5
20260507165022 76 198 1.0 5.0 0.00 2.47 1.29 68 1010.5
20260507164539 76 44 2.0 4.0 0.00 2.47 1.29 67 1010.6
20260507164022 77 20 1.0 4.0 0.00 2.47 1.29 68 1010.6
20260507163523 77 281 1.0 4.0 0.00 2.47 1.29 69 1010.6
20260507163037 76 288 1.0 3.0 0.00 2.47 1.29 70 1010.7
20260507162523 75 0 0.0 3.0 0.00 2.47 1.29 70 1010.8
20260507162022 74 0 0.0 4.0 0.00 2.47 1.29 71 1010.7
20260507161541 73 78 0.0 4.0 0.00 2.47 1.29 72 1010.9
20260507161024 74 290 1.0 4.0 0.00 2.47 1.29 70 1011.1
20260507160523 74 112 0.0 3.0 0.00 2.47 1.29 72 1011.3
20260507160045 74 347 0.0 3.0 0.00 2.47 1.29 71 1011.3
20260507155522 74 0 0.0 3.0 0.00 2.47 1.29 72 1011.5
20260507155028 74 0 0.0 4.0 0.00 2.47 1.29 72 1011.3
20260507154538 74 0 0.0 4.0 0.00 2.47 1.29 73 1011.0
20260507154026 73 300 0.0 2.0 0.00 2.47 1.29 75 1011.1
20260507153525 72 300 0.0 2.0 0.00 2.47 1.29 74 1011.1
20260507153037 73 0 0.0 1.0 0.00 2.47 1.29 74 1011.4
20260507152526 73 0 0.0 2.0 0.00 2.47 1.29 76 1011.6
20260507152023 72 0 0.0 2.0 0.00 2.47 1.29 77 1011.5
20260507151538 71 340 0.0 4.0 0.00 2.47 1.29 78 1011.4
20260507151024 70 0 0.0 4.0 0.00 2.47 1.29 80 1011.5
20260507150526 69 290 0.0 3.0 0.00 2.47 1.29 80 1011.6
20260507150037 69 314 0.0 2.0 0.00 2.47 1.29 81 1011.7
20260507145522 69 319 0.0 1.0 0.00 2.47 1.29 82 1011.9
20260507145022 68 299 0.0 1.0 0.00 2.47 1.29 82 1012.1
20260507144557 68 298 0.0 2.0 0.00 2.47 1.29 83 1012.0
20260507144023 68 0 0.0 2.0 0.00 2.47 1.29 82 1012.0
20260507143523 68 313 0.0 2.0 0.00 2.47 1.29 83 1011.8
20260507143037 68 0 0.0 1.0 0.00 2.47 1.29 83 1011.6
20260507142523 68 306 0.0 2.0 0.00 2.47 1.29 84 1011.6
20260507142026 67 0 0.0 2.0 0.01 2.47 1.29 85 1011.2
20260507141540 67 315 0.0 0.0 0.01 2.47 1.29 86 1011.1
20260507141022 66 316 0.0 1.0 0.02 2.47 1.29 86 1011.0
20260507140522 65 316 0.0 2.0 0.03 2.47 1.29 86 1011.0
20260507140036 65 0 0.0 2.0 0.03 2.47 1.29 87 1010.8
20260507135524 64 313 0.0 3.0 0.04 2.47 1.29 86 1010.8
20260507135023 64 0 0.0 3.0 0.04 2.47 1.29 86 1010.6
20260507134544 64 0 0.0 1.0 0.05 2.47 1.29 86 1011.0
20260507134023 64 314 0.0 1.0 0.06 2.47 1.29 86 1011.0
20260507133523 64 0 0.0 1.0 0.07 2.47 1.29 86 1010.9
20260507133039 63 0 0.0 1.0 0.09 2.47 1.29 86 1011.1
20260507132522 63 0 0.0 1.0 0.10 2.47 1.29 86 1011.1
20260507132022 63 0 0.0 0.0 0.10 2.46 1.28 87 1011.5
20260507131541 63 0 0.0 1.0 0.10 2.46 1.28 87 1011.8
20260507131024 63 0 0.0 1.0 0.09 2.45 1.27 87 1011.9
20260507130525 63 0 0.0 1.0 0.08 2.44 1.26 86 1011.7
20260507130037 63 0 0.0 1.0 0.08 2.44 1.26 86 1011.7
20260507125524 63 0 0.0 0.0 0.08 2.43 1.25 87 1012.1
20260507125024 63 0 0.0 0.0 0.08 2.43 1.25 86 1011.9
20260507124537 63 307 0.0 0.0 0.07 2.42 1.24 86 1011.6
20260507124028 63 0 0.0 0.0 0.06 2.41 1.23 86 1011.7
20260507123523 63 0 0.0 2.0 0.04 2.39 1.21 87 1012.0
20260507123037 63 0 0.0 2.0 0.04 2.38 1.20 86 1012.1
20260507122523 63 272 0.0 1.0 0.04 2.36 1.19 87 1011.1
20260507122025 63 0 0.0 0.0 0.04 2.35 1.17 86 1011.0
20260507121539 62 0 0.0 0.0 0.05 2.35 1.17 87 1010.8
20260507121024 62 0 0.0 1.0 0.06 2.35 1.17 87 1010.8
20260507120523 62 0 0.0 1.0 0.09 2.35 1.17 86 1011.0
20260507120038 62 305 0.0 1.0 0.10 2.35 1.17 86 1011.3
20260507115523 62 305 0.0 1.0 0.12 2.34 1.16 86 1011.4
20260507115023 62 0 0.0 0.0 0.14 2.34 1.16 86 1011.5
20260507114538 62 0 0.0 2.0 0.19 2.34 1.16 86 1011.7
20260507114023 62 0 1.0 2.0 0.23 2.34 1.16 86 1011.3
20260507113524 62 305 1.0 2.0 0.23 2.34 1.16 86 1010.7
20260507113038 62 0 0.0 2.0 0.22 2.33 1.16 86 1011.2
20260507112527 62 305 0.0 2.0 0.22 2.33 1.15 86 1011.4
20260507112026 62 310 0.0 2.0 0.21 2.32 1.14 86 1010.7
20260507111542 62 0 0.0 2.0 0.20 2.31 1.13 86 1010.6
20260507111024 62 278 0.0 4.0 0.18 2.29 1.11 86 1011.2
20260507110524 62 325 1.0 4.0 0.16 2.27 1.09 86 1011.9
20260507110037 62 310 1.0 3.0 0.14 2.25 1.07 86 1012.0
20260507105525 62 295 2.0 3.0 0.11 2.22 1.04 86 1011.9
20260507105023 62 325 1.0 2.0 0.11 2.21 1.03 86 1011.7
20260507104538 63 323 1.0 2.0 0.07 2.16 0.98 86 1011.5
20260507104024 63 298 0.0 1.0 0.05 2.11 0.94 86 1011.3
20260507103524 63 0 0.0 1.0 0.06 2.11 0.94 86 1011.2
20260507103040 63 0 0.0 0.0 0.06 2.11 0.94 86 1011.1
20260507102523 63 0 0.0 0.0 0.05 2.10 0.93 86 1011.1
20260507102023 63 0 0.0 0.0 0.05 2.10 0.93 86 1011.1
20260507101545 63 0 0.0 0.0 0.05 2.10 0.93 86 1011.1
20260507101024 63 0 0.0 1.0 0.06 2.10 0.93 86 1011.0
20260507100524 63 0 0.0 1.0 0.06 2.10 0.93 86 1011.1
20260507100041 63 0 0.0 1.0 0.06 2.10 0.93 86 1011.2
20260507095523 63 314 0.0 2.0 0.05 2.09 0.92 86 1011.3
20260507095026 63 317 0.0 2.0 0.05 2.09 0.92 86 1011.2
20260507094545 63 13 0.0 2.0 0.04 2.08 0.91 86 1011.5
20260507094022 63 292 1.0 2.0 0.02 2.07 0.89 86 1011.7
20260507093523 63 303 0.0 1.0 0.01 2.06 0.88 86 1011.7
20260507093044 63 0 0.0 0.0 0.02 2.06 0.88 86 1011.6
20260507092522 63 0 0.0 2.0 0.04 2.06 0.88 86 1011.4
20260507092022 63 0 0.0 2.0 0.04 2.06 0.88 86 1011.2
20260507091540 63 311 0.0 2.0 0.04 2.06 0.88 86 1011.2
20260507091023 63 312 0.0 1.0 0.03 2.05 0.87 86 1011.3
20260507090525 63 0 0.0 0.0 0.04 2.05 0.87 86 1011.2
20260507090038 63 311 0.0 0.0 0.05 2.05 0.87 86 1011.2
20260507085523 63 0 0.0 0.0 0.09 2.05 0.87 86 1011.3
20260507085022 63 0 0.0 0.0 0.13 2.05 0.87 86 1011.3
20260507084545 63 0 0.0 1.0 0.15 2.05 0.87 86 1011.3
20260507084023 63 0 0.0 1.0 0.19 2.05 0.87 86 1011.1
20260507083527 63 312 0.0 3.0 0.21 2.05 0.87 86 1011.2
20260507083041 63 0 0.0 3.0 0.22 2.04 0.86 86 1011.1